This is the latest recevied weather packets stored in our database for station/object MARKET. If no packets are shown the sender has not sent any weather packets the latest 10 day(s).
| Time | Temp. | Humidity | Pressure | Rain* | Wind** | Luminosity | Snow |
|---|---|---|---|---|---|---|---|
| 1777324007 | 3.89° C | 78% | 1023.3 hPa | - | - | - | - |
| 1777322808 | 3.89° C | 79% | 1023.2 hPa | - | - | - | - |
| 1777321608 | 3.89° C | 80% | 1023.1 hPa | - | - | - | - |
| 1777320406 | 3.89° C | 79% | 1023 hPa | - | - | - | - |
| 1777319206 | 3.89° C | 80% | 1022.9 hPa | - | - | - | - |
| 1777318007 | 3.89° C | 79% | 1022.8 hPa | - | - | - | - |
| 1777316806 | 3.89° C | 77% | 1022.8 hPa | - | - | - | - |
| 1777315606 | 3.89° C | 77% | 1022.8 hPa | - | - | - | - |
| 1777314406 | 3.89° C | 79% | 1022.6 hPa | - | - | - | - |
| 1777313206 | 3.89° C | 77% | 1022.4 hPa | - | - | - | - |
| 1777312006 | 4.44° C | 73% | 1022.4 hPa | - | - | - | - |
| 1777310806 | 4.44° C | 70% | 1022.1 hPa | - | - | - | - |
| 1777309605 | 4.44° C | 73% | 1022.2 hPa | - | - | - | - |
| 1777307205 | 4.44° C | 72% | 1022.2 hPa | - | - | - | - |
| 1777306006 | 3.89° C | 73% | 1022.3 hPa | - | - | - | - |
| 1777304806 | 3.89° C | 72% | 1022.1 hPa | - | - | - | - |
| 1777303605 | 3.89° C | 72% | 1022.1 hPa | - | - | - | - |
| 1777302405 | 4.44° C | 69% | 1022.1 hPa | - | - | - | - |
| 1777301205 | 3.89° C | 71% | 1022.1 hPa | - | - | - | - |
| 1777300005 | 3.89° C | 73% | 1022.1 hPa | - | - | - | - |
| 1777298805 | 3.89° C | 71% | 1022 hPa | - | - | - | - |
| 1777297605 | 3.89° C | 75% | 1022.1 hPa | - | - | - | - |
| 1777296405 | 3.89° C | 73% | 1022 hPa | - | - | - | - |
| 1777295205 | 3.89° C | 73% | 1022.1 hPa | - | - | - | - |
| 1777294005 | 3.33° C | 76% | 1022.1 hPa | - | - | - | - |
* Rain since midnight (hover to see other rain measurements)
** Current wind speed in m/s (hover to see current wind gust speed)